Regional Weather Roundup
Issued by NWS Newport/Morehead, NC

Current Version | Previous Version | Text Only | Print | Product List | Glossary Off
Versions: 1 2 3 4 5 6 7 8 9 10 11 12 13 14 15 16 17 18 19 20 21 22 23 24 25 26 27 28 29 30 31 32 33 34 35 36 37 38 39 40 41 42 43 44 45 46 47 48 49 50
000 ASUS42 KMHX 290422 RWRMHX WEATHER ROUNDUP FOR EASTERN NORTH CAROLINA NATIONAL WEATHER SERVICE NEWPORT/MOREHEAD CITY NC 1100 PM EST FRI NOV 28 2014 NOTE: "FAIR" INDICATES FEW OR NO CLOUDS BELOW 12,000 FEET WITH NO SIGNIFICANT WEATHER AND/OR OBSTRUCTIONS TO VISIBILITY NCZ015>017-031-032-045>047-102-103-290500- NORTH COAST CITY SKY/WX TMP DP RH WIND PRES REMARKS EDENTON N/A 29 27 92 CALM 30.32S ELIZABETH CITY CLEAR 32 27 81 CALM 30.32F KITTY HAWK CLEAR 37 25 63 CALM 30.31S MANTEO CLEAR 32 27 81 CALM 30.32F $$ NCZ045>047-081-094-103-104-290500- CENTRAL COAST CITY SKY/WX TMP DP RH WIND PRES REMARKS FRISCO CLEAR 39 25 57 NW5 30.33R SWANQUARTER N/A N/A N/A N/A CALM 30.30S $$ NCZ095-097-098-100-101-290500- SOUTHERN COAST CITY SKY/WX TMP DP RH WIND PRES REMARKS BEAUFORT CLEAR 31 29 92 CALM 30.32F CEDAR ISLAND N/A 41 N/A N/A W2 30.36S JACKSONVILLE CLEAR 31 28 89 CALM 30.32F PINEY ISLAND CLEAR 39 27 62 CALM 30.32F WILMINGTON CLEAR 32 29 88 CALM 30.33F $$ NCZ011>013-027>030-043-044-078>080-089-090>093-098-290500- COASTAL PLAIN CITY SKY/WX TMP DP RH WIND PRES REMARKS AHOSKIE CLEAR 26 25 94 CALM 30.32S CLINTON CLEAR 30 30 99 CALM 30.33F ELIZABETHTOWN CLEAR 31 28 88 CALM 30.32F GOLDSBORO CLEAR 29 29 97 CALM 30.30F GREENVILLE CLEAR 30 30 100 CALM 30.32F HAVELOCK CLEAR 31 26 82 CALM 30.34F KENANSVILLE CLEAR 28 27 99 CALM 30.33F KINSTON CLEAR 29 28 96 CALM 30.32F NEW BERN CLEAR 32 27 81 CALM 30.34F RICHLANDS CLEAR 28 25 86 CALM 30.32F ROCKY MOUNT CLEAR 28 25 88 CALM 30.31F WASHINGTON CLEAR 29 26 88 CALM 30.33R WHITEVILLE CLEAR 32 28 87 CALM 30.32F $$ AMZ130-135-150-152-154-156-158-170-250-252-270-ANZ085-086-088-633-658-670-290500- MARINE OBSERVATIONS STATION/POSITION TIME TEMP WIND PRES WAVE SWELL AIR SEA DIR/SP/G HT/PER HT/PER (UTC) (F) (DEG/KT/KT) (MB) (FT/S) (FT/S) CHESAPEAKE LIGHT 0400 41 300/ 10/ 11 1026.9 64 E VA BEACH 0400 43 62 320/ 10/ 16 1025.5 4/ 6 3/ 6 DUCK 0400 41 52 310/ 4/ 5 1025.7 2 E DUCK 0400 53 N/A 3/ 6 2/13 10 NE DUCK 0400 56 N/A 4/ 6 2/11 OREGON INLET 0400 37 52 330/ 3/ 4 1026.9 13E OREGON INLT 0400 58 N/A 5/10 2/11 HATTERAS CG 0400 43 52 330/ 7/ 10 1027.0 DIAMOND BUOY 0400 43 320/ 8/ 12 1026.7 5/10 5/10 17 S OCRACOKE NOT AVBL CAPE LOOKOUT 0400 42 360/ 4/ 5 1026.4 BEAUFORT LAB 0400 39 53 CALM / 2 1025.7 30 SE NEW RIVER 0400 47 68 340/ 8/ 12 1027.1 3/10 3/10 5 SE WRIGHTSVLE 0400 42 58 340/ 2/ 4 1026.8 225 S CAPE HAT 0319 58 72 360/ 14/ 19 1024.4 8/ 9 7/ 9 41 SE CHARLESTON 0400 51 72 350/ 6/ 8 1026.6 3/ 9 3/ 9 $$

USA.gov is the U.S. government's official web portal to all federal, state and local government web resources and services.